Home   Weather   Toledo   Past weeks

Flag for USA Past Weather in Toledo, Ohio, USA — Yesterday and Last 2 Weeks

Now
71 °F

Clear.


Feels Like: 71 °F
Forecast: 66 / 79 °F
Wind: 6 mph from Southwest

Location: Toledo Suburban Airport

Current Time: Aug 18, 2017 at 3:17:01 am

Latest Report: Aug 18, 2017 at 2:34 am


Visibility: 10 mi

Pressure: 29.74 "Hg

Humidity: 83%

Dew Point: 66 °F

Location of ToledoLocation

Past Weather in Toledo — Graph

°F

Toledo Temperature Yesterday

Maximum temperature yesterday: 83 °F (at 6:54 pm)
Minimum temperature yesterday: 69 °F (at 5:54 am)
Average temperature yesterday: 76 °F

High & Low Weather Summary for the Past Weeks

 TemperatureHumidityPressure
High86 °F (Aug 3, 4:14 pm)99% (Aug 8, 5:34 am)30.22 "Hg (Aug 8, 5:34 am)
Low50 °F (Aug 8, 6:55 am)31% (Aug 9, 4:54 pm)29.73 "Hg (Aug 17, 6:54 pm)
Average69 °F73%30.00 "Hg
* Reported Aug 3 2:14 am — Aug 18 2:14 am, Toledo. Weather by CustomWeather, © 2017

Note: Actual official high and low records may vary slightly from our data, if they occured in-between our weather recording intervals... More about our weather records

Advertising

Toledo Weather History for the Previous 24 Hours

Scroll right to see more
 ConditionsComfort  
Time TempWeatherWind HumidityBarometerVisibility
2:14 am
Fri, Aug 18
71 °FClear.5 mph82%29.75 "Hg10 mi
1:55 am71 °FClear.7 mph82%29.75 "Hg10 mi
1:34 am72 °FClear.6 mph81%29.76 "Hg10 mi
1:14 am72 °FClear.6 mph79%29.76 "Hg10 mi
12:55 am73 °FClear.7 mph77%29.77 "Hg10 mi
12:34 am73 °FClear.9 mph77%29.77 "Hg10 mi
12:14 am73 °FClear.6 mph77%29.78 "Hg10 mi
11:55 pm
Thu, Aug 17
74 °FClear.7 mph76%29.78 "Hg10 mi
11:34 pm74 °FClear.8 mph76%29.78 "Hg10 mi
11:14 pm75 °FClear.10 mph74%29.78 "Hg10 mi
10:55 pm76 °FClear.8 mph72%29.78 "Hg10 mi
10:34 pm77 °FClear.8 mph72%29.77 "Hg10 mi
10:14 pm77 °FClear.8 mph73%29.77 "Hg10 mi
9:55 pm77 °FClear.8 mph71%29.77 "Hg10 mi
9:34 pm78 °FClear.7 mph70%29.76 "Hg10 mi
8:55 pm78 °FPassing clouds.5 mph70%29.75 "Hg10 mi
8:34 pm79 °FClear.7 mph68%29.74 "Hg10 mi
8:15 pm80 °FSunny.8 mph66%29.73 "Hg10 mi
7:54 pm81 °FSunny.8 mph63%29.73 "Hg10 mi
7:34 pm82 °FSunny.9 mph62%29.73 "Hg10 mi
7:15 pm83 °FSunny.9 mph61%29.73 "Hg10 mi
6:54 pm83 °FSunny.8 mph61%29.73 "Hg10 mi
6:34 pm82 °FScattered clouds.12 mph68%29.74 "Hg10 mi
6:15 pm83 °FScattered clouds.8 mph69%29.74 "Hg10 mi
5:54 pm82 °FBroken clouds.9 mph72%29.75 "Hg10 mi
5:34 pm82 °FScattered clouds.12 mph72%29.75 "Hg10 mi
5:15 pm83 °FSunny.9 mph73%29.74 "Hg10 mi
4:54 pm81 °FPartly sunny.8 mph79%29.75 "Hg10 mi
4:35 pm79 °FOvercast.7 mph86%29.75 "Hg10 mi
4:14 pm79 °FCloudy.9 mph86%29.75 "Hg10 mi
3:55 pm77 °FFog.9 mph92%29.76 "Hg5 mi
3:34 pm77 °FMore clouds than sun.6 mph91%29.77 "Hg7 mi
3:14 pm77 °FCloudy.5 mph91%29.78 "Hg7 mi
2:55 pm75 °FLight rain. Broken clouds.3 mph95%29.80 "Hg5 mi
2:34 pm73 °FRain. Cloudy.No wind95%29.82 "Hg5 mi
1:54 pm71 °FHeavy rain. Mostly cloudy.3 mph95%29.84 "Hg1 mi
1:34 pm79 °FHeavy rain. Cloudy.5 mph82%29.81 "Hg7 mi
1:15 pm81 °FBroken clouds.No wind75%29.79 "Hg10 mi
12:54 pm82 °FBroken clouds.6 mph74%29.82 "Hg10 mi
12:34 pm82 °FScattered clouds.5 mph74%29.82 "Hg10 mi
12:15 pm81 °FSunny.8 mph76%29.83 "Hg10 mi
11:54 am81 °FSunny.8 mph77%29.83 "Hg10 mi
11:34 am81 °FScattered clouds.7 mph78%29.85 "Hg10 mi
11:15 am80 °FScattered clouds.7 mph81%29.85 "Hg10 mi
10:54 am79 °FSunny.6 mph83%29.85 "Hg10 mi
10:34 am78 °FSunny.7 mph87%29.86 "Hg10 mi
10:15 am75 °FSunny.5 mph91%29.87 "Hg7 mi
9:34 am74 °FFog.3 mph93%29.88 "Hg5 mi
8:54 am72 °FFog.3 mph94%29.88 "Hg4 mi
8:34 am71 °FFog.3 mph95%29.89 "Hg4 mi
8:15 am71 °FFog.5 mph95%29.89 "Hg4 mi
7:54 am70 °FFog.3 mph96%29.89 "Hg3 mi
7:34 am70 °FFog.No wind97%29.89 "Hg3 mi
7:15 am69 °FFog.3 mph96%29.89 "Hg4 mi
6:54 am69 °FLight rain. Scattered clouds.No wind96%29.89 "Hg5 mi
6:34 am69 °FPassing clouds.No wind96%29.89 "Hg7 mi
6:15 am69 °FHeavy rain. Overcast.6 mph96%29.89 "Hg2 mi
5:54 am69 °FFog.No wind95%29.90 "Hg4 mi
5:34 am71 °FHeavy rain. Partly cloudy.No wind89%29.90 "Hg3 mi
5:15 am72 °FRain. Partly cloudy.No wind81%29.91 "Hg10 mi
4:54 am72 °FPassing clouds.3 mph79%29.90 "Hg10 mi
4:34 am72 °FPassing clouds.5 mph78%29.90 "Hg10 mi
4:15 am72 °FMostly cloudy.5 mph75%29.90 "Hg10 mi
3:54 am72 °FMostly cloudy.5 mph74%29.91 "Hg10 mi
3:34 am72 °FPartly cloudy.5 mph72%29.91 "Hg10 mi
Weather by CustomWeather, © 2017

See weather overviewHow to use our weather pages